TimeCST,TemperatureF,Dew PointF,Humidity,Sea Level PressureIn,VisibilityMPH,Wind Direction,Wind SpeedMPH,Gust SpeedMPH,PrecipitationIn,Events,Conditions,WindDirDegrees,DateUTC
12:58 AM,46.8,45.9,97,29.75,10.0,Calm,Calm,-,N/A,,Partly Cloudy,360,2013-03-05 06:58:00
1:58 AM,48.0,46.8,95,29.77,10.0,Calm,Calm,-,N/A,,Partly Cloudy,0,2013-03-05 07:58:00
2:58 AM,49.1,48.2,97,29.78,10.0,SW,6.9,-,N/A,,Scattered Clouds,220,2013-03-05 08:58:00
3:58 AM,50.5,48.7,94,29.81,10.0,West,12.7,-,N/A,,Scattered Clouds,260,2013-03-05 09:58:00
4:33 AM,51.8,48.2,88,29.84,10.0,West,11.5,-,N/A,,Mostly Cloudy,280,2013-03-05 10:33:00
4:58 AM,52.2,48.4,87,29.86,10.0,WNW,8.1,-,N/A,,Overcast,290,2013-03-05 10:58:00
5:11 AM,51.8,48.2,88,29.88,10.0,West,11.5,19.6,N/A,,Light Drizzle,280,2013-03-05 11:11:00
5:22 AM,53.6,48.2,82,29.88,10.0,WNW,13.8,24.2,N/A,,Overcast,290,2013-03-05 11:22:00
5:48 AM,51.8,44.6,76,29.90,10.0,NW,20.7,28.8,N/A,Rain,Light Rain,320,2013-03-05 11:48:00
5:58 AM,49.8,40.8,71,29.93,10.0,NW,20.7,28.8,0.00,Rain,Light Rain,310,2013-03-05 11:58:00
5:59 AM,50.0,39.2,66,29.92,10.0,NW,21.9,28.8,N/A,,Overcast,310,2013-03-05 11:59:00
6:20 AM,46.4,39.2,76,29.94,10.0,NW,16.1,27.6,N/A,Rain,Light Rain,320,2013-03-05 12:20:00
6:35 AM,44.6,39.2,81,29.96,10.0,WNW,11.5,26.5,N/A,Rain,Light Rain,300,2013-03-05 12:35:00
6:42 AM,44.6,39.2,81,29.99,10.0,WNW,8.1,23.0,N/A,,Overcast,290,2013-03-05 12:42:00
6:49 AM,44.6,39.2,81,29.98,10.0,WNW,10.4,-,N/A,Rain,Light Rain,300,2013-03-05 12:49:00
6:58 AM,44.2,39.0,82,29.97,6.0,NNW,8.1,-,0.00,Rain,Rain,330,2013-03-05 12:58:00
7:52 AM,42.8,41.0,93,30.02,10.0,WNW,10.4,-,N/A,,Mostly Cloudy,300,2013-03-05 13:52:00
7:58 AM,43.5,40.6,90,30.03,10.0,WNW,11.5,17.3,0.06,,Mostly Cloudy,300,2013-03-05 13:58:00
8:08 AM,44.6,39.2,81,30.02,10.0,WNW,10.4,18.4,N/A,,Mostly Cloudy,300,2013-03-05 14:08:00
8:18 AM,44.6,39.2,81,30.03,10.0,WNW,10.4,18.4,N/A,,Overcast,300,2013-03-05 14:18:00
8:23 AM,44.6,37.4,76,30.04,10.0,WNW,12.7,-,N/A,,Overcast,290,2013-03-05 14:23:00
8:28 AM,44.6,37.4,76,30.05,10.0,WNW,10.4,-,N/A,,Overcast,300,2013-03-05 14:28:00
8:33 AM,44.6,37.4,76,30.05,10.0,WNW,9.2,-,N/A,,Overcast,290,2013-03-05 14:33:00
8:53 AM,44.6,39.2,81,30.05,10.0,WNW,11.5,16.1,N/A,,Overcast,290,2013-03-05 14:53:00
8:58 AM,44.4,38.5,80,30.06,10.0,WNW,10.4,16.1,N/A,,Mostly Cloudy,300,2013-03-05 14:58:00
9:38 AM,46.4,35.6,66,30.07,10.0,WNW,16.1,26.5,N/A,,Overcast,300,2013-03-05 15:38:00
9:58 AM,46.0,34.7,65,30.09,10.0,NW,11.5,25.3,N/A,,Overcast,310,2013-03-05 15:58:00
10:58 AM,47.7,32.4,55,30.10,10.0,WNW,20.7,32.2,N/A,,Mostly Cloudy,290,2013-03-05 16:58:00
11:58 AM,51.1,30.2,45,30.09,10.0,WNW,18.4,31.1,N/A,,Clear,290,2013-03-05 17:58:00
12:58 PM,52.9,29.8,41,30.08,10.0,West,26.5,33.4,N/A,,Clear,260,2013-03-05 18:58:00
1:58 PM,52.7,25.9,35,30.09,10.0,West,21.9,34.5,N/A,,Clear,280,2013-03-05 19:58:00
2:41 PM,53.6,21.2,28,30.09,10.0,West,25.3,33.4,N/A,,Light Drizzle,270,2013-03-05 20:41:00
2:51 PM,53.6,21.2,28,30.10,10.0,West,20.7,31.1,N/A,,Clear,270,2013-03-05 20:51:00
2:58 PM,53.8,21.7,29,30.11,10.0,West,23.0,32.2,0.00,,Clear,280,2013-03-05 20:58:00
3:58 PM,53.8,19.9,27,30.12,10.0,West,15.0,23.0,N/A,,Clear,280,2013-03-05 21:58:00
4:58 PM,52.5,19.2,27,30.14,10.0,WNW,13.8,20.7,N/A,,Clear,290,2013-03-05 22:58:00
5:58 PM,49.8,18.5,29,30.16,10.0,WNW,12.7,17.3,N/A,,Clear,290,2013-03-05 23:58:00
6:58 PM,47.1,18.0,31,30.18,10.0,WNW,9.2,17.3,N/A,,Clear,290,2013-03-06 00:58:00
7:58 PM,45.3,19.8,36,30.20,10.0,WNW,6.9,-,N/A,,Clear,290,2013-03-06 01:58:00
8:58 PM,44.2,20.1,38,30.24,10.0,West,5.8,-,N/A,,Clear,280,2013-03-06 02:58:00
9:58 PM,43.5,20.3,40,30.27,10.0,WNW,5.8,-,N/A,,Clear,290,2013-03-06 03:58:00
10:58 PM,38.7,21.6,50,30.27,10.0,NW,4.6,-,N/A,,Clear,310,2013-03-06 04:58:00
11:58 PM,38.5,21.2,50,30.27,10.0,NW,2.3,-,N/A,,Clear,320,2013-03-06 05:58:00